Flag for Romania Weather past 2 weeks in Timișoara, Romania

Now
59 °F

Clear.


Feels Like: 58 °F
Forecast: 50 / 69 °F
Wind: 8 mph from East

Location: Timisoara Airport


UV Index: 3 (Moderate)

Visibility: 10 mi


Pressure: 29.86 "Hg

Humidity: 94%

Dew point: 57 °F

Location of TimișoaraLocation

Historic Weather in Timișoara

°F

Timișoara temperature yesterday

Maximum temperature yesterday: 73 °F (at 3:30 PM)
Minimum temperature yesterday: 48 °F (at 5:00 AM)
Average temperature yesterday: 61 °F

Past Weeks' High & Low Weather Summary

 TemperatureHumidityPressure
High73 °F (Apr 23, 3:30 PM)100% (Apr 9, 10:30 PM)30.07 "Hg (Apr 9, 10:30 PM)
Low32 °F (Apr 10, 7:30 AM)37% (Apr 13, 5:30 PM)29.53 "Hg (Apr 19, 2:30 AM)
Average53 °F82%29.89 "Hg
* Reported Apr 9 10:00 PM — Apr 24 10:00 PM, Timișoara, Weather by CustomWeather, © 2014

Note: Actual official high and low records may vary slightly from our data, if they occured in-between our weather recording intervals... More about our weather records

Advertising

Historic Weather Conditions — Data for Previous 24 hours

 ConditionsComfort  
Time TempWeatherWind HumidityBarometerVisibility
10:00 PM
Apr 24
59 °FClear.7 mph94%29.86 "Hg10 mi
9:30 PM59 °FSunny.5 mph94%29.86 "Hg10 mi
9:00 PM59 °FSunny.5 mph100%29.86 "Hg10 mi
8:30 PM61 °FSunny.3 mph94%29.86 "Hg10 mi
8:00 PM61 °FPassing clouds.3 mph94%29.86 "HgN/A
7:30 PM63 °FPassing clouds.6 mph94%29.86 "HgN/A
7:00 PM63 °FPassing clouds.7 mph94%29.86 "HgN/A
6:30 PM63 °FPassing clouds.8 mph94%29.86 "HgN/A
6:00 PM63 °FPassing clouds.8 mph94%29.86 "HgN/A
5:30 PM63 °FPassing clouds.8 mph94%29.86 "HgN/A
5:00 PM63 °FPassing clouds.9 mph94%29.86 "HgN/A
4:30 PM63 °FScattered clouds.10 mph94%29.86 "HgN/A
4:00 PM64 °FPassing clouds.9 mph94%29.86 "HgN/A
3:30 PM64 °FScattered clouds.10 mph94%29.89 "HgN/A
3:00 PM64 °FLight rain. Scattered clouds.8 mph94%29.89 "HgN/A
2:30 PM63 °FLight rain. Scattered clouds.6 mph100%29.89 "HgN/A
2:00 PM63 °FLight rain. Scattered clouds.8 mph94%29.89 "HgN/A
1:30 PM63 °FLight rain. Scattered clouds.8 mph94%29.89 "Hg5 mi
1:00 PM63 °FPassing clouds.6 mph94%29.89 "HgN/A
12:30 PM63 °FPassing clouds.3 mph94%29.89 "HgN/A
12:00 PM63 °FPassing clouds.3 mph94%29.89 "HgN/A
11:30 AM61 °FPassing clouds.2 mph100%29.89 "HgN/A
11:00 AM61 °FLight rain. Passing clouds.5 mph94%29.89 "HgN/A
10:30 AM59 °FPassing clouds.5 mph100%29.89 "HgN/A
10:00 AM61 °FPassing clouds.6 mph94%29.89 "HgN/A
9:30 AM59 °FPassing clouds.6 mph94%29.89 "HgN/A
9:00 AM59 °FPassing clouds.6 mph94%29.89 "HgN/A
8:30 AM57 °FLight rain. Passing clouds.3 mph100%29.89 "HgN/A
8:00 AM57 °FLight rain. Clear.7 mph100%29.89 "HgN/A
7:30 AM57 °FLight rain. Passing clouds.5 mph94%29.89 "HgN/A
7:00 AM57 °FLight rain. Passing clouds.3 mph94%29.89 "HgN/A
6:30 AM57 °FClear.1 mph94%29.89 "Hg10 mi
5:30 AM57 °FLight rain. Clear.3 mph94%29.89 "HgN/A
5:00 AM57 °FLight rain. Clear.2 mph94%29.89 "HgN/A
4:30 AM57 °FClear.2 mph94%29.89 "Hg10 mi
4:00 AM55 °FClear.No wind100%29.89 "Hg10 mi
3:30 AM55 °FClear.1 mph100%29.89 "Hg10 mi
3:00 AM59 °FClear.2 mph94%29.89 "Hg10 mi
2:30 AM59 °FClear.5 mph94%29.92 "Hg10 mi
2:00 AM59 °FClear.2 mph94%29.92 "Hg10 mi
1:30 AM59 °FClear.3 mph100%29.92 "Hg10 mi
1:00 AM61 °FPassing clouds.5 mph94%29.95 "HgN/A
12:30 AM61 °FClear.3 mph94%29.95 "Hg10 mi
12:00 AM59 °FClear.5 mph100%29.95 "Hg10 mi
11:30 PM
Apr 23
61 °FClear.5 mph94%29.95 "Hg10 mi
11:00 PM63 °FClear.5 mph88%29.95 "Hg10 mi
Weather by CustomWeather, © 2014

See weather overview